Back to catalog

CZ-6A DEB

AliveSSO
NORAD 54429·DEBRIS·🇨🇳 China

Launched Nov 11, 2022 from Taiyuan Satellite Launch Center

Loading…

Next Passes (next 24 hours)

TLE

FreshSource: Space-Track

Epoch: Sep 14, 2026, 08:16 UTC

1 54429U 22151FD  26257.34470671  .00000222  00000-0  20946-3 0  9999
2 54429  99.0610 225.4907 0165622 239.9558 118.5081 13.85530226193881

Track CZ-6A DEB in real time with AllMySat

Download on the App Store